This demonstration page uses our WeatherBlox Daily Observations layout. Learn more.

Left ArrowRight Arrow

38.80484, -77.04692

Hourly Observations for November 3, 2020

Temp ( °F °C ) Dew Point ( °F °C ) Humidity (%) Winds ( mph kmh ) Pressure ( in mb ) Visibility ( mi km ) Precip ( " mm )
12:52 am 00:52 Mostly Cloudy 43 6.1 20 -6.7 40 40 SSW 12 19 30.06 1018 10 16.0934 0 0
1:52 am 01:52 Mostly Cloudy 41 5 22 -5.6 47 47 SW 9 15 30.08 1019 10 16.0934 0 0
2:52 am 02:52 Mostly Cloudy 40 4.4 23 -5 51 51 WSW 9 15 30.09 1019 10 16.0934 0 0
3:52 am 03:52 Mostly Cloudy 40 4.4 22 -5.6 49 49 SW 5 7 30.09 1019 10 16.0934 0 0
4:52 am 04:52 Clear 42 5.6 21 -6.1 43 43 VRB 6 9 30.09 1019 10 16.0934 0 0
5:52 am 05:52 Partly Cloudy 44 6.7 19 -7.2 37 37 SW 7 11 30.1 1019 10 16.0934 0 0
6:52 am 06:52 Partly Cloudy 48 8.9 18 -7.8 30 30 W 12 19 30.09 1019 10 16.0934 0 0
7:52 am 07:52 Partly Cloudy 51 10.6 20 -6.7 29 29 WNW 12 19 30.12 1020 10 16.0934 0 0
8:52 am 08:52 Mostly Cloudy 53 11.7 22 -5.6 30 30 W 16 26 30.14 1021 10 16.0934 0 0
9:52 am 09:52 Partly Cloudy 55 12.8 25 -3.9 31 31 WNW 16 26 30.15 1021 10 16.0934 0 0
10:52 am 10:52 Partly Cloudy 58 14.4 26 -3.3 29 29 NW 21 33 30.13 1020 10 16.0934 0 0
11:52 am 11:52 Mostly Sunny 61 16.1 27 -2.8 27 27 WNW 10 17 30.14 1021 10 16.0934 0 0
12:52 pm 12:52 Mostly Sunny 62 16.7 28 -2.2 28 28 NW 12 19 30.13 1020 10 16.0934 0 0
1:52 pm 13:52 Mostly Sunny 64 17.8 28 -2.2 26 26 W 13 20 30.12 1020 10 16.0934 0 0
2:52 pm 14:52 Mostly Cloudy 65 18.3 30 -1.1 27 27 WNW 13 20 30.14 1021 10 16.0934 0 0
3:52 pm 15:52 Mostly Cloudy 64 17.8 29 -1.7 27 27 W 10 17 30.16 1022 10 16.0934 0 0
4:52 pm 16:52 Partly Cloudy 61 16.1 30 -1.1 31 31 NW 7 11 30.17 1022 10 16.0934 0 0
5:52 pm 17:52 Mostly Clear 58 14.4 34 1.1 41 41 SSW 6 9 30.2 1023 10 16.0934 0 0
6:52 pm 18:52 Mostly Clear 55 12.8 34 1.1 45 45 Calm 30.22 1024 10 16.0934 0 0
7:52 pm 19:52 Mostly Clear 52 11.1 40 4.4 64 64 SW 5 7 30.25 1024 10 16.0934 0 0
8:52 pm 20:52 Mostly Clear 51 10.6 37 2.8 59 59 SSW 5 7 30.27 1025 10 16.0934 0 0
9:52 pm 21:52 Mostly Clear 49 9.4 39 3.9 69 69 Calm 30.29 1026 10 16.0934 0 0
10:52 pm 22:52 Mostly Clear 47 8.3 39 3.9 74 74 N 3 6 30.32 1027 10 16.0934 0 0
11:52 pm 23:52 Mostly Clear 47 8.3 39 3.9 74 74 Calm 30.33 1027 10 16.0934 0 0

Powered by AerisWeather